Location: Ferintosh
(52.7647°N, 112.9692°W)
Time: 15:24:48
(UTC+00:00)

Transit 2A Rocket - Pass Details

Date: 24 May 2024
Orbit: 583 x 910 km, 66.7° (Epoch: 14 June)

Event Time Altitude Azimuth Distance (km) Brightness Sun altitude
Rises 18:57:41 0° 319° (NW) 3,386 8.0 57.6°
Reaches altitude 10° 19:00:05 10° 319° (NW) 2,489 7.5 57.7°
Maximum altitude 19:05:55 84° 233° (SW) 901 6.7 57.9°
Drops below altitude 10° 19:12:00 10° 146° (SE) 2,589 8.4 58.0°
Sets 19:14:32 0° 145° (SE) 3,530 8.8 58.1°
